Regional Weather Roundup
Issued by NWS Midland/Odessa, TX

Skip options and go directly to product.
Home | Oldest Version | Previous Version | Current Version | All | Text Only | Save Text | Print | Product List | Glossary On

Skip product version selection by date and time.   
633
ASUS44 KMAF 271810
RWRMAF
MIDLAND AREA WEATHER ROUNDUP
NATIONAL WEATHER SERVICE MIDLAND TX
100 PM CDT THU APR 27 2017

...IN SOUTHWEST TEXAS AND SOUTHEAST NEW MEXICO...

CITY           SKY/WX    TMP DP  RH WIND       PRES   REMARKS
ALPINE         SUNNY     83  32  16 SW21G26   29.84F
ANDREWS        FAIR      83  33  16 W18       29.65F
ARTESIA        SUNNY     84  32  15 SW21G36   29.62S
BIG SPRING     SUNNY     82  36  19 SW22G28   29.68F
CARLSBAD       CLOUDY    85  26  11 W21G35    29.63F
DRYDEN           N/A     83  36  18 SE9       29.70F
FORT STOCKTON  SUNNY     89  34  14 SW15G23   29.69F
GUAD PASS      SUNNY     74  29  19 W45G61    29.75F
HOBBS          SUNNY     81  25  12 SW21G32   29.66F
MARFA          SUNNY     81  33  17 SW16G26   29.83F
MIDLAND AIRPK  CLOUDY    84  31  14 S20       29.66F
MIDLAND INTL   SUNNY     84  30  14 SW17G29   29.65F
ODESSA         SUNNY     86  26  11 SW22G30   29.66F
PECOS          SUNNY     87  30  13 W18G26    29.67F
PRESIDIO       FAIR      85  32  14 SW3       29.74F
SEMINOLE       SUNNY     81  32  17 SW21G30   29.66F
SNYDER         SUNNY    N/A N/A N/A SW22      29.65F
WINK           SUNNY     87  27  11 SW22G36   29.64F
$$
...OTHER STATIONS IN TEXAS...

CITY           SKY/WX    TMP DP  RH WIND       PRES   REMARKS
ABILENE        SUNNY     77  41  27 S23G31    29.67F
AMARILLO       SUNNY     71  38  29 S20G29    29.57F
AUSTIN         MOSUNNY   78  46  32 S14       29.77F
BROWNSVILLE    CLOUDY    85  71  63 E9G20     29.76F
CORPUS CHRISTI PTSUNNY   81  65  58 SE12G18   29.77F
DALLAS FTW     PTSUNNY   70  48  45 SE13      29.77F
DEL RIO        CLOUDY    77  44  30 SE18G24   29.74F
EL PASO        MOSUNNY   80  28  15 SW21G29   29.75F
HOUSTON INT    MOSUNNY   75  51  43 E7        29.81F
LUBBOCK        MOSUNNY   78  33  19 S18G25    29.62F
SAN ANGELO     SUNNY     82  37  20 S28G38    29.68F
SAN ANTONIO    PTSUNNY   75  49  39 S7        29.81F
WACO           SUNNY     71  49  45 SE10G17   29.79F
WICHITA FALLS  NOT AVBL
$$
...OTHER LOCATIONS IN NEW MEXICO...

CITY           SKY/WX    TMP DP  RH WIND       PRES   REMARKS
ALAMOGORDO     CLOUDY    75  30  19 SW9G18    29.75F
ALBUQUERQUE    PTSUNNY   68  32  26 W21G36    29.68F
CANNON AFB     PTSUNNY   75  28  17 W22G35    29.59F
CLOVIS         MOSUNNY   77  34  20 W22G37    29.60F
HOLLOMAN AFB   CLOUDY    76  31  19 SW21G26   29.76F
ROSWELL        SUNNY     85  29  13 W13G23    29.62F
RUIDOSO        MOSUNNY   64  25  22 W18G32    29.80F
SANTA FE       CLOUDY    64  28  25 W26G37    29.67F
TRUTH OR CONSE PTSUNNY   77  32  19 W21G28    29.70F
TUCUMCARI      SUNNY     77  31  18 W31G45    29.53F
$$

  • National Weather Service
  • Southern Region Headquarters
  • 819 Taylor Street, Room 10A06
  • Fort Worth, TX 76102
  • Page Author: NWS Fort Worth
  • Web Master: SR-SRH.Webmaster@noaa.gov
  •  
  • Page last modified: 30-Sep-2016 6:36 PM UTC
USA.gov is the U.S. government's official web portal to all federal, state and local government web resources and services.